Weather History for Imperial, CA

Change the Weather History Date:

Monday, August 4, 2014

  Actual Average Record
Temperature  
Mean Temperature 86 °F -  
Max Temperature 100 °F 106 °F 118 °F (1998)
Min Temperature 73 °F 79 °F 66 °F (1956)
Cooling Degree Days 20    
Growing Degree Days 36 (Base 50)    
Moisture  
Dew Point 63 °F    
Average Humidity 50    
Maximum Humidity 84    
Minimum Humidity 26    
Precipitation  
Precipitation 0.00 in - - ()
Sea Level Pressure  
Sea Level Pressure 29.86 in    
Wind  
Wind Speed 4 mph (NW)    
Max Wind Speed 10 mph    
Max Gust Speed -    
Visibility 10 miles    
Events      
Averages and records for this station are not official NWS values.
T = Trace of Precipitation, MM = Missing Value Source: NWS Daily Summary

Daily Weather History Graph

Daily Weather History Graph

Search for Another Location

Airport:

Trip Planner

Search our weather history database for the weather conditions in past years. The results will help you decide how hot, cold, wet, or windy it might be!

Date:

Astronomy

Aug. 04, 2014 Rise Set
Actual Time 5:58 AM PDT 7:38 PM PDT
Civil Twilight 5:31 AM PDT 8:04 PM PDT
Nautical Twilight 4:59 AM PDT 8:36 PM PDT
Astronomical Twilight 4:25 AM PDT 9:10 PM PDT
Moon 1:55 PM PDT (8/4) 12:05 AM PDT (8/4)
Length of Visible Light 14h 33m
Length of Day
13h 39m
First Quarter, 58% of the Moon is Illuminated
Aug 4
First Quarter
Aug 10
Full
Aug 17
Last Quarter
Aug 25
New
Sep 2
First Quarter

Hourly Weather History & Observations

Time (PDT) Temp. Heat Index Dew Point Humidity Pressure Visibility Wind Dir Wind Speed Gust Speed Precip Events Conditions
12:53 AM 78.1 °F - 69.1 °F 74% 29.87 in 10.0 mi East 5.8 mph - N/A   Mostly Cloudy
1:53 AM 77.0 °F - 68.0 °F 74% 29.86 in 10.0 mi SE 3.5 mph - N/A   Scattered Clouds
2:53 AM 75.2 °F - 68.0 °F 78% 29.86 in 10.0 mi Calm Calm - N/A   Clear
3:53 AM 75.9 °F - 66.9 °F 74% 29.87 in 10.0 mi ESE 3.5 mph - N/A   Clear
4:53 AM 75.2 °F - 66.2 °F 73% 29.87 in 10.0 mi Calm Calm - N/A   Clear
5:53 AM 73.0 °F - 68.0 °F 84% 29.89 in 10.0 mi WSW 4.6 mph - N/A   Clear
6:53 AM 75.9 °F - 69.1 °F 79% 29.91 in 8.0 mi Calm Calm - N/A   Clear
7:53 AM 78.1 °F - 69.1 °F 74% 29.91 in 9.0 mi Calm Calm - N/A   Clear
8:53 AM 82.0 °F 85.5 °F 69.1 °F 65% 29.92 in 10.0 mi North 4.6 mph - N/A   Clear
9:53 AM 86.0 °F 90.1 °F 69.1 °F 57% 29.93 in 10.0 mi ENE 5.8 mph - N/A   Clear
10:53 AM 88.0 °F 90.7 °F 66.9 °F 49% 29.93 in 10.0 mi North 5.8 mph - N/A   Clear
11:53 AM 90.0 °F 92.8 °F 66.9 °F 46% 29.92 in 10.0 mi West 5.8 mph - N/A   Clear
12:53 PM 91.9 °F 94.1 °F 64.9 °F 41% 29.89 in 10.0 mi Variable 3.5 mph - N/A   Clear
1:53 PM 93.9 °F 95.6 °F 64.0 °F 37% 29.86 in 10.0 mi NNW 6.9 mph - N/A   Clear
2:53 PM 96.1 °F 97.3 °F 63.0 °F 33% 29.84 in 10.0 mi Variable 3.5 mph - N/A   Clear
3:53 PM 98.1 °F 99.1 °F 62.1 °F 30% 29.81 in 10.0 mi North - - N/A   Clear
4:53 PM 98.1 °F 99.1 °F 62.1 °F 30% 29.79 in 10.0 mi Variable 3.5 mph - N/A   Clear
5:53 PM 98.1 °F 99.6 °F 63.0 °F 31% 29.78 in 10.0 mi NNW 6.9 mph - N/A   Clear
6:53 PM 98.1 °F 99.1 °F 62.1 °F 30% 29.78 in 10.0 mi ENE 3.5 mph - N/A   Clear
7:53 PM 95.0 °F 95.6 °F 62.1 °F 33% 29.79 in 10.0 mi Calm Calm - N/A   Clear
8:53 PM 88.0 °F - 48.9 °F 26% 29.82 in 10.0 mi WSW 10.4 mph - N/A   Clear
9:53 PM 84.0 °F - 48.9 °F 29% 29.84 in 10.0 mi West 8.1 mph - N/A   Clear
10:53 PM 82.9 °F - 48.9 °F 31% 29.85 in 10.0 mi WSW 8.1 mph - N/A   Clear
11:53 PM 81.0 °F - 48.9 °F 33% 29.86 in 10.0 mi West 5.8 mph - N/A   Clear